#�ϑ�����,���ϕ���,���ϕ���,�ő啗��,�ő啗����������,�ő�u�ԕ���,�ő�u�ԕ�����������
#(�N����),(m/s)   ,(16����),(m/s)   ,(16����)        ,(m/s)       ,(16����)            
2017/10/4 0:01,1.6,4,1.8,3,1.3,13
2017/10/4 0:02,1.3,4,1.5,3,1.8,1
2017/10/4 0:03,1.2,3,1.3,4,2,4
2017/10/4 0:04,1.2,3,1.2,4,3.3,3
2017/10/4 0:05,1.2,3,1.2,4,3.3,3
2017/10/4 0:06,1.2,3,1.2,4,4.8,16
2017/10/4 0:07,1.5,3,1.5,4,8.5,2
2017/10/4 0:08,1.9,2,1.9,4,9.3,1
2017/10/4 0:09,2.3,2,2.3,2,9.8,4
2017/10/4 0:10,2.6,3,2.6,3,6.3,2
2017/10/4 0:11,3.1,3,3.1,3,9.3,1
2017/10/4 0:12,3.3,3,3.3,3,5,1
2017/10/4 0:13,3.6,2,3.6,2,4.9,15
2017/10/4 0:14,3.8,2,3.8,2,6.4,15
2017/10/4 0:15,4,2,4,2,7.2,15
2017/10/4 0:16,4.2,2,4.2,2,6.5,5
2017/10/4 0:17,4.1,2,4.2,2,6.7,5
2017/10/4 0:18,3.8,2,4.1,2,3.2,5
2017/10/4 0:19,3.6,2,3.8,2,3.9,2
2017/10/4 0:20,3.5,2,3.6,2,5,15
2017/10/4 0:21,3.1,1,3.5,2,2.1,12
2017/10/4 0:22,2.8,2,3,2,1.9,6
2017/10/4 0:23,2.6,3,2.8,2,2.4,7
2017/10/4 0:24,2.4,4,2.6,2,3.5,7
2017/10/4 0:25,2.3,5,2.3,2,5.1,5
2017/10/4 0:26,2,5,2.3,2,4.2,5
2017/10/4 0:27,1.8,5,2,2,2.6,1
2017/10/4 0:28,1.7,5,1.7,2,2.5,13
2017/10/4 0:29,1.7,9,1.7,2,1.9,14
2017/10/4 0:30,1.5,9,1.7,2,3.5,12
2017/10/4 0:31,1.5,2,1.5,1,3.7,15
2017/10/4 0:32,1.7,15,1.7,2,4.5,16
2017/10/4 0:33,1.8,15,1.8,3,3,16
2017/10/4 0:34,1.7,15,1.8,4,2.6,16
2017/10/4 0:35,1.8,15,1.8,5,5,15
2017/10/4 0:36,1.8,15,1.8,5,6.1,16
2017/10/4 0:37,1.9,15,1.9,15,4.5,1
2017/10/4 0:38,1.8,15,1.9,15,1.5,12
2017/10/4 0:39,1.7,16,1.8,15,1.4,4
2017/10/4 0:40,1.7,16,1.7,15,2,1
2017/10/4 0:41,1.7,16,1.8,15,2.2,16
2017/10/4 0:42,1.5,16,1.7,15,1.6,12
2017/10/4 0:43,1.4,15,1.5,15,1.6,13
2017/10/4 0:44,1.3,14,1.4,15,1.4,10
2017/10/4 0:45,1.3,14,1.3,15,3.3,11
2017/10/4 0:46,1.3,14,1.3,15,4.2,15
2017/10/4 0:47,1.2,13,1.3,15,2.9,16
2017/10/4 0:48,1.1,14,1.2,15,0.8,16
2017/10/4 0:49,1.2,13,1.2,16,1.1,15
2017/10/4 0:50,1.1,13,1.2,16,1.3,12
2017/10/4 0:51,1.1,12,1.1,16,2.5,13
2017/10/4 0:52,1.1,13,1.1,16,1.6,13
2017/10/4 0:53,1.1,13,1.1,15,1.1,5
2017/10/4 0:54,1,14,1.1,14,1.1,6
2017/10/4 0:55,0.9,13,1,14,2.2,8
2017/10/4 0:56,0.8,9,0.9,14,2.4,8
2017/10/4 0:57,0.8,8,0.9,14,2,8
2017/10/4 0:58,0.9,8,0.9,14,2.2,7
2017/10/4 0:59,1,8,1,13,2.4,8
2017/10/4 1:00,1.1,7,1.1,13,3,6
2017/10/4 1:01,1.1,7,1.2,7,4.5,8
2017/10/4 1:02,1.3,7,1.3,7,3.6,7
2017/10/4 1:03,1.4,8,1.4,8,3.6,12
2017/10/4 1:04,1.5,9,1.5,8,2.7,12
2017/10/4 1:05,1.6,9,1.6,9,2.6,13
2017/10/4 1:06,1.4,9,1.5,9,0.3,14
2017/10/4 1:07,1.4,10,1.4,9,0.6,16
2017/10/4 1:08,1.3,9,1.4,9,1.3,4
2017/10/4 1:09,1.2,10,1.3,9,1,1
2017/10/4 1:10,1.2,12,1.2,9,3.3,13
2017/10/4 1:11,1.2,13,1.2,9,3.8,13
2017/10/4 1:12,1,13,1.2,9,1.8,11
2017/10/4 1:13,0.9,14,1,9,0.8,14
2017/10/4 1:14,0.8,15,0.8,9,2.1,2
2017/10/4 1:15,0.8,1,0.8,9,2.1,2
2017/10/4 1:16,0.9,1,0.9,9,1.8,3
2017/10/4 1:17,0.9,1,0.9,10,1.4,6
2017/10/4 1:18,1,1,1,9,1.8,4
2017/10/4 1:19,1.2,2,1.2,10,2.5,3
2017/10/4 1:20,1.3,3,1.3,2,3.2,5
2017/10/4 1:21,1.2,3,1.2,2,2.6,5
2017/10/4 1:22,1.3,3,1.3,2,2.2,3
2017/10/4 1:23,1.3,3,1.3,2,1.9,7
2017/10/4 1:24,1.3,4,1.3,2,1.1,14
2017/10/4 1:25,1.1,4,1.2,2,1.3,2
2017/10/4 1:26,1.3,4,1.3,2,5.5,3
2017/10/4 1:27,1.8,4,1.8,4,6.7,3
2017/10/4 1:28,2.1,3,2.1,3,6.3,3
2017/10/4 1:29,2.2,3,2.2,3,4.2,3
2017/10/4 1:30,2.2,3,2.2,3,3.2,3
2017/10/4 1:31,2.2,3,2.2,3,2.6,2
2017/10/4 1:32,2.2,3,2.2,3,2.1,1
2017/10/4 1:33,2.1,3,2.2,3,1.4,10
2017/10/4 1:34,2.1,3,2.1,3,1.3,6
2017/10/4 1:35,2.1,4,2.2,3,1.1,4
2017/10/4 1:36,2,4,2.1,3,2.4,5
2017/10/4 1:37,1.6,4,1.9,3,2.7,4
2017/10/4 1:38,1.2,5,1.5,3,1.6,7
2017/10/4 1:39,1,6,1.2,3,2,9
2017/10/4 1:40,1,7,1,3,2.6,9
2017/10/4 1:41,1.1,8,1.1,3,3.3,12
2017/10/4 1:42,1.2,9,1.2,3,3,13
2017/10/4 1:43,1.3,9,1.3,3,2.2,12
2017/10/4 1:44,1.4,10,1.4,3,2.5,10
2017/10/4 1:45,1.3,10,1.4,4,1.1,2
2017/10/4 1:46,1.4,10,1.4,4,2.5,1
2017/10/4 1:47,1.4,11,1.4,4,2.5,13
2017/10/4 1:48,1.6,12,1.6,12,5.2,14
2017/10/4 1:49,1.7,13,1.7,12,3.5,16
2017/10/4 1:50,1.7,14,1.7,12,2.9,3
2017/10/4 1:51,1.6,15,1.7,12,2.6,3
2017/10/4 1:52,1.5,15,1.6,12,1.4,15
2017/10/4 1:53,1.3,16,1.4,12,2,6
2017/10/4 1:54,1.3,16,1.3,12,2.2,9
2017/10/4 1:55,1.3,1,1.3,12,2,8
2017/10/4 1:56,1.3,1,1.3,12,1.6,4
2017/10/4 1:57,1.2,2,1.3,12,2.2,10
2017/10/4 1:58,1.1,4,1.2,12,2.6,10
2017/10/4 1:59,1,7,1.1,13,3.5,9
2017/10/4 2:00,1.2,9,1.2,14,3.3,10
2017/10/4 2:01,1.3,10,1.3,15,4.8,11
2017/10/4 2:02,1.5,10,1.5,10,4.5,11
2017/10/4 2:03,1.7,9,1.7,9,3.9,10
2017/10/4 2:04,1.9,10,1.9,10,6.2,9
2017/10/4 2:05,1.9,10,1.9,10,2.9,8
2017/10/4 2:06,2,10,2,10,2,14
2017/10/4 2:07,1.9,11,2,10,1.1,14
2017/10/4 2:08,1.8,11,1.9,10,1,10
2017/10/4 2:09,1.7,11,1.8,10,1.3,8
2017/10/4 2:10,1.5,11,1.7,10,1.4,8
2017/10/4 2:11,1.2,11,1.5,10,1.1,9
2017/10/4 2:12,1,11,1.2,10,0.8,10
2017/10/4 2:13,0.9,11,1,10,1.4,12
2017/10/4 2:14,0.6,11,0.9,10,0.6,12
2017/10/4 2:15,0.6,11,0.6,10,1.9,9
2017/10/4 2:16,0.7,10,0.7,10,3,9
2017/10/4 2:17,0.9,10,0.9,11,3.7,11
2017/10/4 2:18,1,11,1,11,2.5,12
2017/10/4 2:19,1.1,10,1.1,11,3,9
2017/10/4 2:20,1.2,11,1.2,11,3.6,1
2017/10/4 2:21,1.3,11,1.3,11,3.3,16
2017/10/4 2:22,1.4,11,1.4,11,3.7,8
2017/10/4 2:23,1.5,10,1.5,10,3.9,8
2017/10/4 2:24,1.7,10,1.7,10,4.3,7
2017/10/4 2:25,1.7,9,1.7,10,1.8,4
2017/10/4 2:26,1.6,9,1.7,10,1.4,6
2017/10/4 2:27,1.4,8,1.6,10,1.6,7
2017/10/4 2:28,1.4,8,1.4,10,1.6,7
2017/10/4 2:29,1.2,7,1.4,10,1.4,1
2017/10/4 2:30,1.1,7,1.2,10,1,2
2017/10/4 2:31,1,8,1.1,10,0.8,13
2017/10/4 2:32,0.9,8,1,10,0.6,9
2017/10/4 2:33,0.7,8,0.9,10,0.9,14
2017/10/4 2:34,0.6,7,0.7,10,2.9,16
2017/10/4 2:35,0.6,7,0.6,9,2.5,16
2017/10/4 2:36,0.7,4,0.7,9,2.1,4
2017/10/4 2:37,0.8,2,0.8,8,3.7,1
2017/10/4 2:38,0.8,2,0.8,8,1.6,2
2017/10/4 2:39,0.9,2,0.9,7,2,1
2017/10/4 2:40,0.9,3,0.9,7,1.1,6
2017/10/4 2:41,0.9,3,0.9,8,2,15
2017/10/4 2:42,1.2,2,1.2,2,5.5,16
2017/10/4 2:43,1.4,2,1.4,2,5.6,15
2017/10/4 2:44,1.6,2,1.6,2,5.7,15
2017/10/4 2:45,1.9,1,1.9,1,6.3,15
2017/10/4 2:46,2,1,2,1,4.5,15
2017/10/4 2:47,2.2,16,2.2,1,5.2,15
2017/10/4 2:48,2.3,16,2.3,16,4.2,15
2017/10/4 2:49,2.4,16,2.4,16,2.7,16
2017/10/4 2:50,2.6,16,2.6,16,3.3,16
2017/10/4 2:51,2.6,16,2.6,16,3.2,16
2017/10/4 2:52,2.6,16,2.7,16,3.5,15
2017/10/4 2:53,2.5,16,2.6,16,2.6,2
2017/10/4 2:54,2.6,1,2.6,16,9,2
2017/10/4 2:55,2.7,1,2.7,16,9.4,3
2017/10/4 2:56,2.5,1,2.6,16,3,14
2017/10/4 2:57,2.3,1,2.5,16,2.4,16
2017/10/4 2:58,2.1,1,2.2,16,2.5,1
2017/10/4 2:59,2.1,1,2.1,16,3.2,11
2017/10/4 3:00,2.1,1,2.1,16,3.7,10
2017/10/4 3:01,2.1,16,2.1,16,2.9,11
2017/10/4 3:02,1.9,16,2.1,1,2.6,12
2017/10/4 3:03,1.8,15,1.9,1,0.9,5
2017/10/4 3:04,1.5,13,1.8,1,2,6
2017/10/4 3:05,1.2,12,1.4,1,2.6,16
2017/10/4 3:06,1.5,13,1.5,1,9,16
2017/10/4 3:07,1.8,13,1.8,1,7.4,13
2017/10/4 3:08,2,13,2,1,5.7,13
2017/10/4 3:09,2.2,13,2.2,13,5,15
2017/10/4 3:10,2.1,13,2.2,13,2.1,13
2017/10/4 3:11,2,13,2.1,13,2.2,7
2017/10/4 3:12,2.1,13,2.1,13,4.7,11
2017/10/4 3:13,2.2,13,2.2,13,2.9,11
2017/10/4 3:14,2.2,13,2.2,13,1.3,10
2017/10/4 3:15,2.1,13,2.2,13,1.9,15
2017/10/4 3:16,1.8,12,2.1,13,4.1,13
2017/10/4 3:17,1.8,12,1.8,13,3.7,12
2017/10/4 3:18,1.7,12,1.8,13,4.1,11
2017/10/4 3:19,1.7,12,1.7,13,5.6,14
2017/10/4 3:20,1.8,12,1.8,13,4.8,16
2017/10/4 3:21,1.8,12,1.8,13,4.7,8
2017/10/4 3:22,1.8,12,1.9,13,4.7,8
2017/10/4 3:23,2.2,11,2.2,13,8.6,6
2017/10/4 3:24,2.5,12,2.5,12,8.2,4
2017/10/4 3:25,2.7,11,2.7,11,5,3
2017/10/4 3:26,2.8,5,2.8,9,4.9,3
2017/10/4 3:27,2.7,4,2.8,9,5.1,16
2017/10/4 3:28,2.8,3,2.8,9,5.6,15
2017/10/4 3:29,2.7,3,2.8,9,4.4,15
2017/10/4 3:30,2.5,3,2.7,9,1.4,4
2017/10/4 3:31,2.5,3,2.6,9,2.2,16
2017/10/4 3:32,2.5,2,2.5,9,2.5,13
2017/10/4 3:33,2.1,1,2.5,9,2,11
2017/10/4 3:34,1.7,1,2,9,0.9,5
2017/10/4 3:35,1.5,16,1.7,9,0.6,8
2017/10/4 3:36,1.2,15,1.4,4,0.4,4
2017/10/4 3:37,1.2,15,1.2,3,4.3,3
2017/10/4 3:38,1.2,16,1.2,3,5.4,16
2017/10/4 3:39,1.2,1,1.2,3,3.5,2
2017/10/4 3:40,1.3,16,1.3,3,2.2,2
2017/10/4 3:41,1.2,16,1.3,2,1.8,4
2017/10/4 3:42,1.2,2,1.2,2,1.8,4
2017/10/4 3:43,1.2,3,1.2,1,1.8,4
2017/10/4 3:44,1.3,3,1.3,1,4.1,4
2017/10/4 3:45,1.6,2,1.6,2,6.9,3
2017/10/4 3:46,1.8,3,1.8,2,6.1,1
2017/10/4 3:47,1.7,3,1.8,2,2.2,4
2017/10/4 3:48,1.5,3,1.7,2,3.6,3
2017/10/4 3:49,1.5,3,1.5,2,1.6,3
2017/10/4 3:50,1.4,4,1.5,2,1.6,3
2017/10/4 3:51,1.4,4,1.4,2,3.5,9
2017/10/4 3:52,1.5,4,1.5,2,3,9
2017/10/4 3:53,1.4,4,1.5,2,1.4,11
2017/10/4 3:54,1.3,5,1.4,2,1.9,10
2017/10/4 3:55,1.2,6,1.4,2,3.2,8
2017/10/4 3:56,1.4,6,1.4,3,4.9,6
2017/10/4 3:57,1.5,6,1.5,3,5.6,4
2017/10/4 3:58,1.7,6,1.7,6,4.1,3
2017/10/4 3:59,1.8,6,1.8,6,4.1,3
2017/10/4 4:00,1.9,5,1.9,6,3,1
2017/10/4 4:01,2,5,2,5,2.9,1
2017/10/4 4:02,1.9,4,1.9,5,3.7,15
2017/10/4 4:03,2.1,3,2.1,3,2.9,14
2017/10/4 4:04,2.1,2,2.1,3,3,10
2017/10/4 4:05,2,2,2.1,3,1.1,10
2017/10/4 4:06,1.7,1,1.9,3,2.9,16
2017/10/4 4:07,1.5,1,1.7,3,2.7,16
2017/10/4 4:08,1.3,1,1.5,3,2,2
2017/10/4 4:09,1.2,16,1.3,3,3,4
2017/10/4 4:10,1.2,15,1.3,3,3.5,13
2017/10/4 4:11,1.2,14,1.2,3,2.6,13
2017/10/4 4:12,1.3,15,1.3,3,4.1,16
2017/10/4 4:13,1.4,15,1.4,3,5.5,16
2017/10/4 4:14,1.4,16,1.5,2,3.6,15
2017/10/4 4:15,1.5,15,1.5,2,1.4,10
2017/10/4 4:16,1.4,14,1.5,1,1.5,1
2017/10/4 4:17,1.4,14,1.4,1,1.8,11
2017/10/4 4:18,1.4,13,1.4,15,1.8,11
2017/10/4 4:19,1.3,13,1.4,15,1,8
2017/10/4 4:20,1.4,12,1.4,15,2.4,7
2017/10/4 4:21,1.3,9,1.4,15,2.9,9
2017/10/4 4:22,1.2,9,1.3,15,2.7,9
2017/10/4 4:23,1.1,9,1.3,15,3.8,8
2017/10/4 4:24,1.1,8,1.1,15,2.7,8
2017/10/4 4:25,1.2,8,1.2,15,3.2,9
2017/10/4 4:26,1.2,8,1.2,14,3,9
2017/10/4 4:27,1.3,8,1.3,14,4.4,6
2017/10/4 4:28,1.8,8,1.8,8,6.8,6
2017/10/4 4:29,2.1,7,2.1,7,7.7,3
2017/10/4 4:30,2.8,7,2.8,7,11.1,16
2017/10/4 4:31,3,6,3,6,9.3,16
2017/10/4 4:32,3.2,6,3.2,6,6.3,12
2017/10/4 4:33,3.5,7,3.5,7,9.1,11
2017/10/4 4:34,3.8,9,3.8,8,8.6,9
2017/10/4 4:35,4,10,4,9,9.3,9
2017/10/4 4:36,4,10,4,9,2.5,10
2017/10/4 4:37,3.9,11,4,9,1.6,10
2017/10/4 4:38,3.5,12,3.9,9,2,1
2017/10/4 4:39,3.6,13,3.6,9,10.8,15
2017/10/4 4:40,3.2,13,3.6,9,6.1,14
2017/10/4 4:41,2.9,12,3.1,9,2.9,13
2017/10/4 4:42,2.8,13,2.9,9,3.7,15
2017/10/4 4:43,2.4,13,2.7,9,1.4,15
2017/10/4 4:44,1.9,14,2.3,9,1.1,14
2017/10/4 4:45,1.6,15,1.8,10,1.3,4
2017/10/4 4:46,1.6,15,1.6,10,1.4,16
2017/10/4 4:47,1.7,16,1.7,11,2.7,2
2017/10/4 4:48,1.9,16,1.9,13,4.1,1
2017/10/4 4:49,1.5,16,1.8,13,2.4,1
2017/10/4 4:50,1.3,1,1.5,12,3.8,4
2017/10/4 4:51,1.6,1,1.6,12,6.9,3
2017/10/4 4:52,1.6,2,1.6,13,7.1,1
2017/10/4 4:53,1.8,2,1.8,13,3.2,4
2017/10/4 4:54,1.9,2,1.9,16,2.7,3
2017/10/4 4:55,1.9,3,1.9,16,1.6,6
2017/10/4 4:56,2,3,2,3,3.1,6
2017/10/4 4:57,2,4,2,3,4.7,6
2017/10/4 4:58,2.1,4,2.1,4,5.7,5
2017/10/4 4:59,2.1,4,2.2,4,3.9,6
2017/10/4 5:00,2.2,4,2.2,4,5.7,3
2017/10/4 5:01,1.9,4,2.2,4,3.1,5
2017/10/4 5:02,1.9,4,1.9,4,4.4,3
2017/10/4 5:03,1.9,4,2,4,4.7,5
2017/10/4 5:04,2,4,2,4,5.2,16
2017/10/4 5:05,2.3,3,2.3,3,8.5,15
2017/10/4 5:06,2.6,2,2.6,2,8.4,1
2017/10/4 5:07,2.7,2,2.7,2,5.4,1
2017/10/4 5:08,2.6,2,2.7,2,4.3,3
2017/10/4 5:09,2.7,1,2.7,2,3.8,15
2017/10/4 5:10,2.6,2,2.6,2,1.6,15
2017/10/4 5:11,2.6,2,2.6,2,3.8,6
2017/10/4 5:12,2.6,2,2.6,2,5.7,4
2017/10/4 5:13,2.6,2,2.7,2,6.1,5
2017/10/4 5:14,2.8,3,2.8,2,7,1
2017/10/4 5:15,3,3,3,3,8.9,16
2017/10/4 5:16,2.8,3,2.9,3,4.5,16
2017/10/4 5:17,3,3,3,3,8.6,1
2017/10/4 5:18,3,3,3.1,3,7.2,3
2017/10/4 5:19,3.1,3,3.1,3,4.4,14
2017/10/4 5:20,3.2,3,3.2,3,3.5,4
2017/10/4 5:21,3.2,2,3.3,3,3.8,14
2017/10/4 5:22,3.1,2,3.2,3,3.5,16
2017/10/4 5:23,3,1,3,3,3.1,16
2017/10/4 5:24,2.9,1,3,3,4.3,6
2017/10/4 5:25,2.4,2,2.8,3,3.1,6
2017/10/4 5:26,2.3,2,2.4,3,2,13
2017/10/4 5:27,2,2,2.3,3,1.9,12
2017/10/4 5:28,1.8,2,2,3,2.7,3
2017/10/4 5:29,1.8,3,1.8,3,6.7,3
2017/10/4 5:30,2.2,2,2.2,3,8.9,3
2017/10/4 5:31,2.6,3,2.6,2,10.7,3
2017/10/4 5:32,2.8,3,2.8,2,6.2,3
2017/10/4 5:33,2.9,3,2.9,1,4.3,2
2017/10/4 5:34,2.9,3,2.9,3,6,16
2017/10/4 5:35,3.1,2,3.1,2,7.9,15
2017/10/4 5:36,3.6,2,3.6,2,11.7,2
2017/10/4 5:37,3.7,2,3.7,2,4.7,1
2017/10/4 5:38,3.8,2,3.8,2,4.7,3
2017/10/4 5:39,3.9,2,3.9,2,4.7,4
2017/10/4 5:40,3.7,3,3.9,2,6.7,3
2017/10/4 5:41,3.3,2,3.7,2,5.4,3
2017/10/4 5:42,3.1,3,3.3,2,2.7,7
2017/10/4 5:43,3,2,3.1,2,4.9,16
2017/10/4 5:44,3,2,3,2,8.1,16
2017/10/4 5:45,2.9,3,3,2,2.9,4
2017/10/4 5:46,2.5,3,2.9,2,5.1,16
2017/10/4 5:47,2.6,2,2.6,2,7.2,1
2017/10/4 5:48,2.7,2,2.8,2,6.9,1
2017/10/4 5:49,2.7,1,2.7,2,6.4,13
2017/10/4 5:50,2.4,16,2.7,3,4.8,14
2017/10/4 5:51,2.3,16,2.3,2,3.2,14
2017/10/4 5:52,2.3,16,2.4,3,3.8,15
2017/10/4 5:53,2.3,16,2.4,2,3,15
2017/10/4 5:54,2.2,16,2.3,2,1.9,11
2017/10/4 5:55,2.1,16,2.1,3,4.1,15
2017/10/4 5:56,2.1,16,2.1,2,4.8,16
2017/10/4 5:57,2,15,2.2,2,6.5,2
2017/10/4 5:58,1.9,15,1.9,2,7.2,16
2017/10/4 5:59,2,15,2,1,10.5,15
2017/10/4 6:00,2.4,15,2.4,16,13.3,15
2017/10/4 6:01,2.5,15,2.5,15,3.7,8
2017/10/4 6:02,2.5,15,2.5,15,3.9,15
2017/10/4 6:03,2.5,15,2.5,15,3.5,16
2017/10/4 6:04,2.5,16,2.5,15,2,3
2017/10/4 6:05,2.5,16,2.6,16,1.9,2
2017/10/4 6:06,2.4,16,2.5,16,2.1,9
2017/10/4 6:07,2.2,16,2.3,16,1.1,11
2017/10/4 6:08,2,16,2.2,16,2.7,10
2017/10/4 6:09,1.7,15,2,16,2.4,11
2017/10/4 6:10,1.3,13,1.6,16,2.1,11
2017/10/4 6:11,1.3,13,1.4,16,3,9
2017/10/4 6:12,1.2,13,1.3,16,1.1,7
2017/10/4 6:13,1.1,12,1.2,16,1.4,12
2017/10/4 6:14,1.1,12,1.1,16,1.6,2
2017/10/4 6:15,1,12,1,16,1.6,10
2017/10/4 6:16,1,12,1,16,1.6,16
2017/10/4 6:17,1,11,1,16,1.4,7
2017/10/4 6:18,1,12,1,16,2.4,4
2017/10/4 6:19,1,4,1,14,2.7,5
2017/10/4 6:20,1.1,3,1.1,13,4.2,15
2017/10/4 6:21,1.3,2,1.3,13,6.5,16
2017/10/4 6:22,1.8,1,1.8,1,9.3,15
2017/10/4 6:23,2.1,1,2.1,1,6.9,2
2017/10/4 6:24,2.4,1,2.4,1,7.2,15
2017/10/4 6:25,2.7,1,2.8,1,11.6,16
2017/10/4 6:26,3.1,1,3.1,1,7.4,16
2017/10/4 6:27,3.3,1,3.3,1,5.6,2
2017/10/4 6:28,3.5,16,3.5,16,4.4,13
2017/10/4 6:29,3.5,16,3.5,16,3.3,16
2017/10/4 6:30,3.6,16,3.6,16,3.9,16
2017/10/4 6:31,3.3,16,3.6,16,5,16
2017/10/4 6:32,3.1,16,3.3,16,5,2
2017/10/4 6:33,3,16,3.1,16,5.8,2
2017/10/4 6:34,2.8,16,2.9,16,3.8,2
2017/10/4 6:35,2.5,16,2.8,16,3.2,16
2017/10/4 6:36,2.2,16,2.5,16,3.3,3
2017/10/4 6:37,2.1,16,2.2,16,2.5,8
2017/10/4 6:38,2,16,2.1,16,2,3
2017/10/4 6:39,1.9,1,2,16,3.2,3
2017/10/4 6:40,1.7,1,1.9,16,2.4,2
2017/10/4 6:41,1.7,2,1.7,16,2.9,6
2017/10/4 6:42,1.7,2,1.7,16,4.2,6
2017/10/4 6:43,1.8,3,1.8,16,7,5
2017/10/4 6:44,1.9,3,1.9,16,7.8,2
2017/10/4 6:45,2,4,2,16,6.1,4
2017/10/4 6:46,2.1,3,2.1,16,4.3,16
2017/10/4 6:47,2.1,4,2.1,16,1.6,10
2017/10/4 6:48,2,4,2.1,4,2.6,8
2017/10/4 6:49,2.2,5,2.2,5,4.4,5
2017/10/4 6:50,2.2,5,2.2,5,4.1,8
2017/10/4 6:51,2.2,5,2.3,5,3.5,4
2017/10/4 6:52,2.1,5,2.2,5,2.6,13
2017/10/4 6:53,1.9,6,2.1,5,2.9,12
2017/10/4 6:54,1.7,7,1.8,5,2.7,7
2017/10/4 6:55,1.7,8,1.8,5,3.5,9
2017/10/4 6:56,1.6,8,1.7,5,2.1,10
2017/10/4 6:57,1.8,7,1.8,5,3.6,7
2017/10/4 6:58,1.8,7,1.8,5,2.4,5
2017/10/4 6:59,1.8,7,1.8,5,5.1,3
2017/10/4 7:00,2.2,6,2.2,5,8.5,4
2017/10/4 7:01,2.3,6,2.3,6,4.9,7
2017/10/4 7:02,2.4,6,2.4,6,4.8,15
2017/10/4 7:03,2.4,5,2.4,6,3.1,16
2017/10/4 7:04,2.4,5,2.4,6,3.2,8
2017/10/4 7:05,2.5,5,2.5,5,4.2,7
2017/10/4 7:06,2.7,5,2.7,5,4.2,6
2017/10/4 7:07,2.8,5,2.8,5,5,7
2017/10/4 7:08,2.8,5,2.8,5,3,8
2017/10/4 7:09,2.8,6,2.9,6,4.3,3
2017/10/4 7:10,2.4,6,2.8,6,2.9,4
2017/10/4 7:11,2.4,6,2.4,6,3.7,3
2017/10/4 7:12,2.3,5,2.4,6,3.8,4
2017/10/4 7:13,2.4,5,2.4,6,6.1,3
2017/10/4 7:14,2.4,5,2.4,6,4.8,4
2017/10/4 7:15,2.4,5,2.4,6,4.3,6
2017/10/4 7:16,2.3,4,2.4,6,6,3
2017/10/4 7:17,2.4,4,2.4,6,5.2,3
2017/10/4 7:18,2.4,4,2.4,6,3.7,5
2017/10/4 7:19,2.3,3,2.4,6,2.5,4
2017/10/4 7:20,2.5,3,2.5,3,5.7,5
2017/10/4 7:21,2.6,4,2.6,4,5.1,7
2017/10/4 7:22,2.4,3,2.6,4,2.1,11
2017/10/4 7:23,2.3,3,2.4,4,2.4,1
2017/10/4 7:24,2.3,3,2.3,4,7.5,2
2017/10/4 7:25,2.5,3,2.5,4,10.1,3
2017/10/4 7:26,2.5,2,2.5,4,8.4,1
2017/10/4 7:27,2.3,2,2.5,4,2.9,1
2017/10/4 7:28,2.3,2,2.3,4,3.7,15
2017/10/4 7:29,2.3,2,2.4,4,4.5,1
2017/10/4 7:30,2.1,1,2.3,4,3.3,16
2017/10/4 7:31,2,1,2.1,4,5,4
2017/10/4 7:32,2.2,2,2.2,3,4.7,4
2017/10/4 7:33,2.4,2,2.4,3,5,4
2017/10/4 7:34,2.5,2,2.5,3,3.6,16
2017/10/4 7:35,2.1,2,2.4,3,3.1,16
2017/10/4 7:36,1.9,2,2.1,2,2,15
2017/10/4 7:37,1.8,1,1.9,2,0.9,11
2017/10/4 7:38,1.7,2,1.8,2,2.5,7
2017/10/4 7:39,1.9,3,1.9,2,5,6
2017/10/4 7:40,2,3,2,2,5.1,5
2017/10/4 7:41,2,3,2.1,2,4.8,7
2017/10/4 7:42,2.1,3,2.1,2,6,2
2017/10/4 7:43,2.2,2,2.2,2,6.4,16
2017/10/4 7:44,2.1,2,2.2,2,2.7,14
2017/10/4 7:45,2,2,2,3,3.5,2
2017/10/4 7:46,2.3,3,2.3,3,5,2
2017/10/4 7:47,2.6,3,2.6,3,5.2,3
2017/10/4 7:48,2.8,3,2.8,3,4.1,3
2017/10/4 7:49,2.7,3,2.8,3,4.1,3
2017/10/4 7:50,2.8,3,2.8,3,5,5
2017/10/4 7:51,2.9,3,2.9,3,4.3,5
2017/10/4 7:52,2.8,3,2.9,3,3.6,6
2017/10/4 7:53,2.6,4,2.7,3,3.1,6
2017/10/4 7:54,2.6,4,2.6,3,1.9,1
2017/10/4 7:55,2.6,4,2.6,3,2,5
2017/10/4 7:56,2.3,5,2.5,3,4.9,8
2017/10/4 7:57,2.2,5,2.3,3,3.1,4
2017/10/4 7:58,2.1,5,2.2,3,3.2,2
2017/10/4 7:59,1.9,5,2,3,1.5,3
2017/10/4 8:00,1.6,5,1.9,3,1.9,5
2017/10/4 8:01,1.6,5,1.6,3,4.3,7
2017/10/4 8:02,1.5,5,1.6,3,3,8
2017/10/4 8:03,1.4,5,1.5,4,2.4,7
2017/10/4 8:04,1.4,6,1.4,4,2.9,8
2017/10/4 8:05,1.6,7,1.6,4,4.7,9
2017/10/4 8:06,1.7,7,1.7,5,5,9
2017/10/4 8:07,1.6,7,1.6,5,2.4,6
2017/10/4 8:08,1.6,7,1.6,5,2.7,6
2017/10/4 8:09,1.7,7,1.7,5,3.3,14
2017/10/4 8:10,1.7,7,1.7,7,3.6,4
2017/10/4 8:11,1.6,7,1.7,7,2.4,1
2017/10/4 8:12,1.5,7,1.5,7,1.5,10
2017/10/4 8:13,1.6,7,1.6,7,3.8,8
2017/10/4 8:14,1.6,7,1.7,7,3.3,7
2017/10/4 8:15,1.5,6,1.7,7,2.9,6
2017/10/4 8:16,1.5,5,1.5,7,3.6,3
2017/10/4 8:17,1.6,5,1.7,7,4.7,2
2017/10/4 8:18,1.8,4,1.8,4,5.8,4
2017/10/4 8:19,2.1,4,2.1,4,7.8,3
2017/10/4 8:20,2.2,4,2.2,4,7.2,7
2017/10/4 8:21,2.3,4,2.3,4,2.6,7
2017/10/4 8:22,2.5,4,2.5,4,4.2,3
2017/10/4 8:23,2.6,3,2.6,4,5.2,3
2017/10/4 8:24,2.6,3,2.6,4,3,3
2017/10/4 8:25,2.8,3,2.8,3,6.2,3
2017/10/4 8:26,2.8,3,2.9,3,4.7,2
2017/10/4 8:27,2.8,3,2.8,3,3.9,3
2017/10/4 8:28,2.8,3,2.8,3,3.6,4
2017/10/4 8:29,2.4,3,2.7,3,2.7,4
2017/10/4 8:30,2.3,2,2.4,3,2.4,2
2017/10/4 8:31,2.3,2,2.3,3,2.2,2
2017/10/4 8:32,2.2,2,2.3,3,3.8,3
2017/10/4 8:33,2.2,2,2.2,3,5.2,7
2017/10/4 8:34,2.4,3,2.4,3,7.6,3
2017/10/4 8:35,2.4,2,2.4,3,8.5,2
2017/10/4 8:36,2.5,2,2.5,3,8.1,2
2017/10/4 8:37,2.4,2,2.4,3,3,1
2017/10/4 8:38,2.2,2,2.3,3,1.6,1
2017/10/4 8:39,2.1,2,2.2,2,1.3,4
2017/10/4 8:40,2.2,3,2.2,2,4.9,1
2017/10/4 8:41,2.2,3,2.2,2,3,3
2017/10/4 8:42,2.2,3,2.2,2,4.1,3
2017/10/4 8:43,2.3,3,2.4,2,7.8,4
2017/10/4 8:44,2.4,2,2.4,2,7.4,3
2017/10/4 8:45,2.2,2,2.4,2,4.1,2
2017/10/4 8:46,2.4,3,2.4,2,7.8,4
2017/10/4 8:47,2.7,3,2.7,3,9.5,5
2017/10/4 8:48,3.1,4,3.1,4,9,5
2017/10/4 8:49,3.4,4,3.4,4,6.7,5
2017/10/4 8:50,3.5,4,3.5,4,4.1,6
2017/10/4 8:51,4,4,4,4,12.8,3
2017/10/4 8:52,4.1,4,4.1,4,6.1,5
2017/10/4 8:53,4,4,4.1,4,6.9,1
2017/10/4 8:54,3.9,4,4,4,7.2,1
2017/10/4 8:55,4,4,4,4,6.1,16
2017/10/4 8:56,4,3,4,4,11.6,2
2017/10/4 8:57,3.9,3,4.1,4,7.9,2
2017/10/4 8:58,3.8,2,3.8,4,8.3,1
2017/10/4 8:59,3.8,2,3.8,4,7.9,3
2017/10/4 9:00,4,2,4.1,4,8.3,5
2017/10/4 9:01,3.9,2,4,4,8.6,4
2017/10/4 9:02,3.9,3,3.9,4,6.2,5
2017/10/4 9:03,3.9,3,4,3,5.8,6
2017/10/4 9:04,4,3,4,3,7.2,4
2017/10/4 9:05,4,3,4,3,6.9,3
2017/10/4 9:06,4,4,4.1,3,5.8,3
2017/10/4 9:07,3.9,4,4,2,5.8,2
2017/10/4 9:08,3.7,4,3.9,2,4.1,1
2017/10/4 9:09,3.5,4,3.7,2,3.7,1
2017/10/4 9:10,3.4,3,3.5,4,5.1,1
2017/10/4 9:11,3,3,3.4,4,2.6,4
2017/10/4 9:12,2.9,3,3,4,3.6,3
2017/10/4 9:13,3.1,3,3.1,4,8.1,4
2017/10/4 9:14,3.2,3,3.2,4,7.7,5
2017/10/4 9:15,3.2,3,3.2,4,6.3,6
2017/10/4 9:16,2.9,4,3.2,4,2.5,5
2017/10/4 9:17,2.8,4,2.9,4,4.1,6
2017/10/4 9:18,3.1,4,3.1,4,6.1,3
2017/10/4 9:19,3.3,4,3.3,4,6.8,4
2017/10/4 9:20,3.4,4,3.4,3,8.4,1
2017/10/4 9:21,3.4,4,3.5,4,4.4,16
2017/10/4 9:22,3.3,4,3.3,4,5.4,3
2017/10/4 9:23,3.3,4,3.4,4,6.3,5
2017/10/4 9:24,3,4,3.3,4,5.7,3
2017/10/4 9:25,3,3,3,4,4.7,16
2017/10/4 9:26,3,3,3,4,2.2,5
2017/10/4 9:27,3,3,3,4,6.5,4
2017/10/4 9:28,3.2,3,3.2,4,9.2,3
2017/10/4 9:29,3.5,3,3.5,4,10.8,3
2017/10/4 9:30,3.4,4,3.5,4,7,3
2017/10/4 9:31,3.5,4,3.6,4,4.1,4
2017/10/4 9:32,3.6,4,3.6,4,3.8,5
2017/10/4 9:33,3.2,4,3.5,4,2,14
2017/10/4 9:34,3.1,3,3.2,4,3.2,16
2017/10/4 9:35,3,3,3.1,4,2.9,16
2017/10/4 9:36,3,4,3,4,2.9,2
2017/10/4 9:37,2.9,4,3,4,1.9,9
2017/10/4 9:38,2.3,4,2.8,4,1.6,9
2017/10/4 9:39,1.7,3,2.2,4,1.3,2
2017/10/4 9:40,1.5,3,1.6,4,3.5,4
2017/10/4 9:41,1.5,3,1.5,4,8.6,3
2017/10/4 9:42,1.9,2,1.9,4,9.4,3
2017/10/4 9:43,2.4,3,2.4,3,8.9,2
2017/10/4 9:44,2.5,3,2.5,3,7.7,1
2017/10/4 9:45,2.7,4,2.7,3,4.9,3
2017/10/4 9:46,2.7,4,2.7,4,4.1,4
2017/10/4 9:47,2.9,4,2.9,4,4.3,7
2017/10/4 9:48,2.9,4,2.9,4,3.3,4
2017/10/4 9:49,3,5,3,4,3.7,5
2017/10/4 9:50,3.2,5,3.2,5,6.7,6
2017/10/4 9:51,3.1,5,3.2,5,5.7,7
2017/10/4 9:52,2.9,6,3.1,5,3.7,6
2017/10/4 9:53,2.5,6,2.8,5,4.2,5
2017/10/4 9:54,2.3,6,2.5,5,1.1,7
2017/10/4 9:55,2.1,6,2.2,5,2,7
2017/10/4 9:56,2,6,2.1,5,3,7
2017/10/4 9:57,1.9,6,2,5,3.7,8
2017/10/4 9:58,2,6,2,5,5.6,8
2017/10/4 9:59,1.9,6,2,5,2.6,9
2017/10/4 10:00,1.7,6,1.9,5,4.2,1
2017/10/4 10:01,1.6,5,1.7,5,4.7,2
2017/10/4 10:02,1.5,5,1.6,6,7,3
2017/10/4 10:03,1.4,4,1.5,6,2,14
2017/10/4 10:04,1.5,4,1.5,6,3.5,14
2017/10/4 10:05,1.6,3,1.6,6,2.5,6
2017/10/4 10:06,1.5,16,1.6,6,2.5,15
2017/10/4 10:07,1.5,16,1.5,6,2.9,16
2017/10/4 10:08,1.6,16,1.7,6,6.8,16
2017/10/4 10:09,1.8,16,1.8,6,4.2,16
2017/10/4 10:10,1.7,16,1.7,16,2.6,15
2017/10/4 10:11,1.7,16,1.7,16,4.2,8
2017/10/4 10:12,1.9,16,1.9,16,7.8,2
2017/10/4 10:13,2.5,1,2.5,1,11.1,3
2017/10/4 10:14,2.9,1,2.9,1,10.2,14
2017/10/4 10:15,3.4,1,3.4,1,11.1,14
2017/10/4 10:16,3.6,1,3.6,1,5.4,14
2017/10/4 10:17,4.1,1,4.1,1,9.5,2
2017/10/4 10:18,4.1,1,4.1,1,6.1,1
2017/10/4 10:19,4.2,1,4.2,1,9.5,1
2017/10/4 10:20,4.6,1,4.6,1,10,1
2017/10/4 10:21,4.9,1,4.9,1,9.9,16
2017/10/4 10:22,5.1,1,5.2,1,10.6,2
2017/10/4 10:23,5.1,1,5.1,1,11.1,1
2017/10/4 10:24,4.9,1,5.1,1,8.2,3
2017/10/4 10:25,4.7,2,4.9,1,8.4,3
2017/10/4 10:26,4.9,2,4.9,1,9.2,1
2017/10/4 10:27,4.9,2,4.9,1,9.3,1
2017/10/4 10:28,5.1,2,5.1,1,8.9,16
2017/10/4 10:29,5.1,1,5.2,1,7.9,16
2017/10/4 10:30,5.1,1,5.1,1,8.3,1
2017/10/4 10:31,5,2,5.1,1,7.2,2
2017/10/4 10:32,4.7,2,4.9,2,7.5,2
2017/10/4 10:33,4.7,1,4.8,2,8.1,15
2017/10/4 10:34,4.6,2,4.6,2,5.5,1
2017/10/4 10:35,4.4,1,4.6,2,5.7,3
2017/10/4 10:36,4.1,1,4.4,2,5,3
2017/10/4 10:37,3.7,1,4,2,3.9,3
2017/10/4 10:38,3.6,2,3.7,2,7.9,2
2017/10/4 10:39,3.6,2,3.6,1,6.3,4
2017/10/4 10:40,3.4,2,3.6,1,6.4,5
2017/10/4 10:41,3.4,3,3.4,2,7.1,4
2017/10/4 10:42,3.3,3,3.4,2,7.6,7
2017/10/4 10:43,2.9,3,3.2,1,1.8,4
2017/10/4 10:44,2.6,4,2.8,2,2.7,3
2017/10/4 10:45,2.4,3,2.6,1,2.1,2
2017/10/4 10:46,2.5,3,2.5,1,5.5,4
2017/10/4 10:47,2.5,4,2.5,1,2.2,10
2017/10/4 10:48,2.3,4,2.5,2,3.2,10
2017/10/4 10:49,2.2,3,2.3,2,6.8,16
2017/10/4 10:50,2.2,3,2.2,2,4.7,1
2017/10/4 10:51,2.1,2,2.3,3,5.8,15
2017/10/4 10:52,1.9,1,2.1,3,5.7,15
2017/10/4 10:53,2.1,1,2.1,4,5.7,15
2017/10/4 10:54,2.6,1,2.6,4,9,1
2017/10/4 10:55,2.8,1,2.8,1,6.7,16
2017/10/4 10:56,3,1,3,1,9.7,3
2017/10/4 10:57,3.3,1,3.3,1,6.1,4
2017/10/4 10:58,3.4,2,3.4,2,6.4,3
2017/10/4 10:59,3.4,2,3.5,2,5.5,4
2017/10/4 11:00,3.2,2,3.4,2,3,3
2017/10/4 11:01,3.3,2,3.3,2,6.2,14
2017/10/4 11:02,3.4,2,3.5,2,3.9,13
2017/10/4 11:03,3.3,1,3.4,2,3.8,15
2017/10/4 11:04,2.8,2,3.3,2,1.8,2
2017/10/4 11:05,2.7,1,2.9,2,5.6,1
2017/10/4 11:06,2.6,1,2.7,2,4.3,3
2017/10/4 11:07,2.6,1,2.6,2,9.3,2
2017/10/4 11:08,2.5,1,2.6,2,6.5,3
2017/10/4 11:09,2.5,1,2.6,2,4.7,3
2017/10/4 11:10,2.9,1,2.9,2,7.7,4
2017/10/4 11:11,3,2,3,2,7.1,4
2017/10/4 11:12,3.2,3,3.2,2,8.3,4
2017/10/4 11:13,3.4,3,3.4,3,8.1,3
2017/10/4 11:14,3.8,3,3.8,3,8.3,3
2017/10/4 11:15,4.3,3,4.3,3,12.1,2
2017/10/4 11:16,4.2,3,4.3,3,5,6
2017/10/4 11:17,4,3,4.2,3,2.7,16
2017/10/4 11:18,3.9,3,4,3,3.8,2
2017/10/4 11:19,3.7,3,3.9,3,2.1,16
2017/10/4 11:20,3.3,2,3.6,3,3.6,16
2017/10/4 11:21,3.2,1,3.3,3,8.5,16
2017/10/4 11:22,3.4,1,3.4,3,10.2,16
2017/10/4 11:23,3.8,16,3.8,3,13.2,15
2017/10/4 11:24,3.9,16,4,3,12.2,15
2017/10/4 11:25,3.8,16,4,3,10.3,1
2017/10/4 11:26,4,16,4,3,8.6,1
2017/10/4 11:27,4.2,16,4.2,16,5.5,3
2017/10/4 11:28,4.4,16,4.4,16,7,3
2017/10/4 11:29,4.7,1,4.7,1,9.1,3
2017/10/4 11:30,5.1,1,5.1,1,7.8,1
2017/10/4 11:31,4.9,1,5.1,1,5.5,1
2017/10/4 11:32,4.9,2,5.1,1,12.6,3